Tracking 17784 objects as of 23-July-2016
HD Live streaming from Space Station
objects crossing your sky now

SCOUT X-4 R/B

Track SCOUT X-4 R/B now!
10-day predictions


NORAD ID: 1739
Int'l Code: 1965-093B
Perigee: 662.6 km
Apogee: 795.2 km
Inclination: 59.7 °
Period: 99.2 minutes
Semi major axis: 7099 km
RCS: 0.5409 m2 (medium)
Launch date: November 19, 1965
Source: United States (US)
Launch site: WALLOPS ISLAND (WLPIS)

Note: This is a ROCKET BODY
Your satellite tracking list
Your tracking list is empty





NASA's NSSDC Master Catalog

Two Line Element Set (TLE):
1 01739U 65093B   16204.24003269 -.00000030  00000-0  31934-4 0  9990
2 01739  59.7047 127.7713 0093418 125.8601 235.1162 14.51194244665732
Source of the keplerian elements: AFSPC

N2YO: 864